TimeEST,TemperatureF,Dew PointF,Humidity,Sea Level PressureIn,VisibilityMPH,Wind Direction,Wind SpeedMPH,Gust SpeedMPH,PrecipitationIn,Events,Conditions,WindDirDegrees,DateUTC
12:53 AM,61.0,55.9,83,29.91,10.0,SSW,4.6,-,N/A,,Overcast,200,2013-12-03 05:53:00
1:53 AM,63.0,55.9,78,29.91,10.0,Calm,Calm,-,N/A,,Overcast,0,2013-12-03 06:53:00
2:53 AM,59.0,55.0,87,29.92,10.0,Calm,Calm,-,N/A,,Scattered Clouds,0,2013-12-03 07:53:00
3:53 AM,59.0,55.9,90,29.92,10.0,Calm,Calm,-,N/A,,Clear,0,2013-12-03 08:53:00
4:53 AM,57.0,55.0,93,29.91,10.0,ESE,3.5,-,N/A,,Clear,110,2013-12-03 09:53:00
5:53 AM,60.1,57.9,93,29.92,10.0,ESE,3.5,-,N/A,,Clear,120,2013-12-03 10:53:00
6:53 AM,59.0,57.9,96,29.93,8.0,SE,3.5,-,N/A,,Clear,130,2013-12-03 11:53:00
7:53 AM,62.1,61.0,96,29.95,10.0,Calm,Calm,-,N/A,,Mostly Cloudy,0,2013-12-03 12:53:00
8:53 AM,66.9,61.0,81,29.95,10.0,SE,10.4,-,N/A,,Clear,140,2013-12-03 13:53:00
9:53 AM,71.1,60.1,68,29.98,10.0,SSE,9.2,-,N/A,,Clear,160,2013-12-03 14:53:00
10:53 AM,73.9,61.0,64,29.99,10.0,South,5.8,-,N/A,,Clear,180,2013-12-03 15:53:00
11:53 AM,75.9,62.1,62,29.97,10.0,SSE,8.1,-,N/A,,Partly Cloudy,160,2013-12-03 16:53:00
12:53 PM,77.0,62.1,60,29.95,10.0,SSE,5.8,-,N/A,,Scattered Clouds,160,2013-12-03 17:53:00
1:53 PM,78.1,61.0,56,29.92,10.0,SSE,8.1,17.3,N/A,,Mostly Cloudy,150,2013-12-03 18:53:00
2:53 PM,77.0,61.0,58,29.90,10.0,ESE,12.7,-,N/A,,Scattered Clouds,120,2013-12-03 19:53:00
3:53 PM,77.0,61.0,58,29.91,10.0,South,12.7,-,N/A,,Scattered Clouds,190,2013-12-03 20:53:00
4:53 PM,73.9,64.9,73,29.91,10.0,South,10.4,-,N/A,,Overcast,190,2013-12-03 21:53:00
5:53 PM,72.0,66.0,81,29.93,10.0,South,9.2,-,N/A,,Overcast,180,2013-12-03 22:53:00
6:53 PM,72.0,66.0,81,29.95,10.0,South,9.2,-,N/A,,Overcast,180,2013-12-03 23:53:00
7:53 PM,71.1,64.9,81,29.95,10.0,South,8.1,-,N/A,,Mostly Cloudy,170,2013-12-04 00:53:00
8:53 PM,70.0,66.0,87,29.95,10.0,South,9.2,-,N/A,,Mostly Cloudy,170,2013-12-04 01:53:00
9:53 PM,70.0,66.0,87,29.97,10.0,South,9.2,-,N/A,,Clear,180,2013-12-04 02:53:00
10:53 PM,70.0,66.0,87,29.99,10.0,South,8.1,-,N/A,,Clear,180,2013-12-04 03:53:00
11:53 PM,68.0,66.0,93,30.00,10.0,South,4.6,-,N/A,,Scattered Clouds,180,2013-12-04 04:53:00